This is the latest recevied weather packets stored in our database for station/object 4S6DRJ-13. If no packets are shown the sender has not sent any weather packets the latest 10 day(s).
| Time | Temp. | Humidity | Pressure | Rain* | Wind** | Luminosity | Snow |
|---|---|---|---|---|---|---|---|
| 1788433396 | 29.44° C | 77% | 1007.3 hPa | 0 mm | 2.24 m/s, 213° | 178 W/m² | - |
| 1788433335 | 29.44° C | 76% | 1007.3 hPa | 0 mm | 2.24 m/s, 207° | 178 W/m² | - |
| 1788433274 | 29.44° C | 77% | 1007.4 hPa | 0 mm | 2.24 m/s, 262° | 174 W/m² | - |
| 1788433213 | 29.44° C | 77% | 1007.5 hPa | 0 mm | 0.45 m/s, 131° | 172 W/m² | - |
| 1788433152 | 29.44° C | 77% | 1007.3 hPa | 0 mm | 0.45 m/s, 142° | 166 W/m² | - |
| 1788433091 | 29.44° C | 76% | 1007.5 hPa | 0 mm | 1.34 m/s, 237° | 174 W/m² | - |
| 1788433030 | 30° C | 76% | 1007.3 hPa | 0 mm | 2.24 m/s, 249° | 178 W/m² | - |
| 1788432969 | 30° C | 76% | 1007.3 hPa | 0 mm | 2.68 m/s, 224° | 178 W/m² | - |
| 1788432908 | 30° C | 76% | 1007.3 hPa | 0 mm | 1.34 m/s, 199° | 176 W/m² | - |
| 1788432848 | 30° C | 76% | 1007.5 hPa | 0 mm | 1.79 m/s, 120° | 179 W/m² | - |
| 1788432786 | 30° C | 76% | 1007.4 hPa | 0 mm | 1.34 m/s, 259° | 176 W/m² | - |
| 1788432725 | 30° C | 76% | 1007.4 hPa | 0 mm | 0.45 m/s, 268° | 166 W/m² | - |
| 1788432664 | 30° C | 76% | 1007.5 hPa | 0 mm | 0.45 m/s, 223° | 162 W/m² | - |
| 1788432603 | 29.44° C | 76% | 1007.4 hPa | 0 mm | 0 m/s | 162 W/m² | - |
| 1788432542 | 29.44° C | 76% | 1007.4 hPa | 0 mm | 0.89 m/s, 281° | 169 W/m² | - |
| 1788432481 | 29.44° C | 76% | 1007.4 hPa | 0 mm | 0.89 m/s, 330° | 176 W/m² | - |
| 1788432420 | 29.44° C | 76% | 1007.5 hPa | 0 mm | 1.79 m/s, 288° | 177 W/m² | - |
| 1788432359 | 30° C | 76% | 1007.3 hPa | 0 mm | 1.34 m/s, 148° | 177 W/m² | - |
| 1788432298 | 30° C | 75% | 1007.5 hPa | 0 mm | 1.79 m/s, 251° | 171 W/m² | - |
| 1788432237 | 30° C | 75% | 1007.3 hPa | 0 mm | 2.24 m/s, 249° | 167 W/m² | - |
| 1788432176 | 30° C | 75% | 1007.6 hPa | 0 mm | 1.79 m/s, 248° | 167 W/m² | - |
| 1788432115 | 30° C | 74% | 1007.4 hPa | 0 mm | 1.79 m/s, 311° | 172 W/m² | - |
| 1788432054 | 30° C | 75% | 1007.4 hPa | 0 mm | 1.79 m/s, 226° | 178 W/m² | - |
| 1788431993 | 30° C | 75% | 1007.5 hPa | 0 mm | 0.89 m/s, 236° | 185 W/m² | - |
| 1788431932 | 30° C | 75% | 1007.4 hPa | 0 mm | 1.34 m/s, 243° | 194 W/m² | - |
* Rain latest hour (hover to see other rain measurements)
** Current wind speed in m/s (hover to see current wind gust speed)